Year,Month,Day,Hour,Minute,Value (Times are PST for temperature in C)
2022,10,16,00,00,13.90
2022,10,16,00,01,14.00
2022,10,16,00,02,14.00
2022,10,16,00,03,14.10
2022,10,16,00,04,14.10
2022,10,16,00,05,14.10
2022,10,16,00,06,14.10
2022,10,16,00,07,14.10
2022,10,16,00,08,14.10
2022,10,16,00,09,14.10
2022,10,16,00,10,14.10
2022,10,16,00,11,14.10
2022,10,16,00,12,14.00
2022,10,16,00,13,14.00
2022,10,16,00,14,14.00
2022,10,16,00,15,13.90
2022,10,16,00,16,13.90
2022,10,16,00,17,13.90
2022,10,16,00,18,13.80
2022,10,16,00,19,13.80
2022,10,16,00,20,13.70
2022,10,16,00,21,13.70
2022,10,16,00,22,13.70
2022,10,16,00,23,13.70
2022,10,16,00,24,13.70
2022,10,16,00,25,13.70
2022,10,16,00,26,13.60
2022,10,16,00,27,13.60
2022,10,16,00,28,13.60
2022,10,16,00,29,13.60
2022,10,16,00,30,13.60
2022,10,16,00,31,13.60
2022,10,16,00,32,13.60
2022,10,16,00,33,13.60
2022,10,16,00,34,13.60
2022,10,16,00,35,13.60
2022,10,16,00,36,13.60
2022,10,16,00,37,13.70
2022,10,16,00,38,13.70
2022,10,16,00,39,13.70
2022,10,16,00,40,13.70
2022,10,16,00,41,13.70
2022,10,16,00,42,13.70
2022,10,16,00,43,13.70
2022,10,16,00,44,13.70
2022,10,16,00,45,13.70
2022,10,16,00,46,13.70
2022,10,16,00,47,13.70
2022,10,16,00,48,13.70
2022,10,16,00,49,13.70
2022,10,16,00,50,13.70
2022,10,16,00,51,13.70
2022,10,16,00,52,13.70
2022,10,16,00,53,13.60
2022,10,16,00,54,13.60
2022,10,16,00,55,13.60
2022,10,16,00,56,13.50
2022,10,16,00,57,13.50
2022,10,16,00,58,13.40
2022,10,16,00,59,13.40
2022,10,16,01,00,13.40
2022,10,16,01,01,13.40
2022,10,16,01,02,13.30
2022,10,16,01,03,13.30
2022,10,16,01,04,13.30
2022,10,16,01,05,13.30
2022,10,16,01,06,13.30
2022,10,16,01,07,13.30
2022,10,16,01,08,13.30
2022,10,16,01,09,13.40
2022,10,16,01,10,13.40
2022,10,16,01,11,13.40
2022,10,16,01,12,13.40
2022,10,16,01,13,13.40
2022,10,16,01,14,13.40
2022,10,16,01,15,13.40
2022,10,16,01,16,13.50
2022,10,16,01,17,13.50
2022,10,16,01,18,13.50
2022,10,16,01,19,13.60
2022,10,16,01,20,13.60
2022,10,16,01,21,13.70
2022,10,16,01,22,13.70
2022,10,16,01,23,13.80
2022,10,16,01,24,13.90
2022,10,16,01,25,13.90
2022,10,16,01,26,13.90
2022,10,16,01,27,14.00
2022,10,16,01,28,14.00
2022,10,16,01,29,14.00
2022,10,16,01,30,14.10
2022,10,16,01,31,14.10
2022,10,16,01,32,14.10
2022,10,16,01,33,14.20
2022,10,16,01,34,14.20
2022,10,16,01,35,14.20
2022,10,16,01,36,14.20
2022,10,16,01,37,14.20
2022,10,16,01,38,14.10
2022,10,16,01,39,14.10
2022,10,16,01,40,14.00
2022,10,16,01,41,14.00
2022,10,16,01,42,14.00
2022,10,16,01,43,14.00
2022,10,16,01,44,13.90
2022,10,16,01,45,14.00
2022,10,16,01,46,14.00
2022,10,16,01,47,14.00
2022,10,16,01,48,14.10
2022,10,16,01,49,14.10
2022,10,16,01,50,14.10
2022,10,16,01,51,14.10
2022,10,16,01,52,14.10
2022,10,16,01,53,14.10
2022,10,16,01,54,14.00
2022,10,16,01,55,14.00
2022,10,16,01,56,14.10
2022,10,16,01,57,14.10
2022,10,16,01,58,14.10
2022,10,16,01,59,14.10
2022,10,16,02,00,14.10
2022,10,16,02,01,14.20
2022,10,16,02,02,14.20
2022,10,16,02,03,14.30
2022,10,16,02,04,14.30
2022,10,16,02,05,14.30
2022,10,16,02,06,14.30
2022,10,16,02,07,14.30
2022,10,16,02,08,14.40
2022,10,16,02,09,14.40
2022,10,16,02,10,14.50
2022,10,16,02,11,14.50
2022,10,16,02,12,14.60
2022,10,16,02,13,14.70
2022,10,16,02,14,14.80
2022,10,16,02,15,14.90
2022,10,16,02,16,14.90
2022,10,16,02,17,15.00
2022,10,16,02,18,15.20
2022,10,16,02,19,15.30
2022,10,16,02,20,15.40
2022,10,16,02,21,15.50
2022,10,16,02,22,15.60
2022,10,16,02,23,15.60
2022,10,16,02,24,15.60
2022,10,16,02,25,15.60
2022,10,16,02,26,15.70
2022,10,16,02,27,15.70
2022,10,16,02,28,15.80
2022,10,16,02,29,15.80
2022,10,16,02,30,15.70
2022,10,16,02,31,15.70
2022,10,16,02,32,15.70
2022,10,16,02,33,15.60
2022,10,16,02,34,15.60
2022,10,16,02,35,15.60
2022,10,16,02,36,15.50
2022,10,16,02,37,15.50
2022,10,16,02,38,15.50
2022,10,16,02,39,15.40
2022,10,16,02,40,15.40
2022,10,16,02,41,15.40
2022,10,16,02,42,15.50
2022,10,16,02,43,15.50
2022,10,16,02,44,15.50
2022,10,16,02,45,15.50
2022,10,16,02,46,15.60
2022,10,16,02,47,15.60
2022,10,16,02,48,15.70
2022,10,16,02,49,15.70
2022,10,16,02,50,15.70
2022,10,16,02,51,15.70
2022,10,16,02,52,15.60
2022,10,16,02,53,15.50
2022,10,16,02,54,15.50
2022,10,16,02,55,15.30
2022,10,16,02,56,15.20
2022,10,16,02,57,15.10
2022,10,16,02,58,15.10
2022,10,16,02,59,15.00
2022,10,16,03,00,14.90
2022,10,16,03,01,14.90
2022,10,16,03,02,14.90
2022,10,16,03,03,15.00
2022,10,16,03,04,15.00
2022,10,16,03,05,15.00
2022,10,16,03,06,15.10
2022,10,16,03,07,15.10
2022,10,16,03,08,15.10
2022,10,16,03,09,15.20
2022,10,16,03,10,15.20
2022,10,16,03,11,15.30
2022,10,16,03,12,15.30
2022,10,16,03,13,15.30
2022,10,16,03,14,15.40
2022,10,16,03,15,15.40
2022,10,16,03,16,15.40
2022,10,16,03,17,15.40
2022,10,16,03,18,15.40
2022,10,16,03,19,15.40
2022,10,16,03,20,15.40
2022,10,16,03,21,15.40
2022,10,16,03,22,15.40
2022,10,16,03,23,15.40
2022,10,16,03,24,15.40
2022,10,16,03,25,15.40
2022,10,16,03,26,15.40
2022,10,16,03,27,15.50
2022,10,16,03,28,15.50
2022,10,16,03,29,15.50
2022,10,16,03,30,15.50
2022,10,16,03,31,15.50
2022,10,16,03,32,15.50
2022,10,16,03,33,15.50
2022,10,16,03,34,15.50
2022,10,16,03,35,15.50
2022,10,16,03,36,15.50
2022,10,16,03,37,15.50
2022,10,16,03,38,15.50
2022,10,16,03,39,15.50
2022,10,16,03,40,15.50
2022,10,16,03,41,15.50
2022,10,16,03,42,15.50
2022,10,16,03,43,15.50
2022,10,16,03,44,15.50
2022,10,16,03,45,15.50
2022,10,16,03,46,15.50
2022,10,16,03,47,15.50
2022,10,16,03,48,15.50
2022,10,16,03,49,15.50
2022,10,16,03,50,15.50
2022,10,16,03,51,15.50
2022,10,16,03,52,15.50
2022,10,16,03,53,15.50
2022,10,16,03,54,15.60
2022,10,16,03,55,15.60
2022,10,16,03,56,15.60
2022,10,16,03,57,15.60
2022,10,16,03,58,15.70
2022,10,16,03,59,15.70
2022,10,16,04,00,15.70
2022,10,16,04,01,15.80
2022,10,16,04,02,15.80
2022,10,16,04,03,15.80
2022,10,16,04,04,15.80
2022,10,16,04,05,15.80
2022,10,16,04,06,15.80
2022,10,16,04,07,15.80
2022,10,16,04,08,15.80
2022,10,16,04,09,15.80
2022,10,16,04,10,15.80
2022,10,16,04,11,15.70
2022,10,16,04,12,15.70
2022,10,16,04,13,15.70
2022,10,16,04,14,15.70
2022,10,16,04,15,15.70
2022,10,16,04,16,15.70
2022,10,16,04,17,15.70
2022,10,16,04,18,15.70
2022,10,16,04,19,15.70
2022,10,16,04,20,15.70
2022,10,16,04,21,15.70
2022,10,16,04,22,15.70
2022,10,16,04,23,15.70
2022,10,16,04,24,15.80
2022,10,16,04,25,15.80
2022,10,16,04,26,15.80
2022,10,16,04,27,15.80
2022,10,16,04,28,15.80
2022,10,16,04,29,15.80
2022,10,16,04,30,15.80
2022,10,16,04,31,15.80
2022,10,16,04,32,15.80
2022,10,16,04,33,15.80
2022,10,16,04,34,15.80
2022,10,16,04,35,15.80
2022,10,16,04,36,15.80
2022,10,16,04,37,15.80
2022,10,16,04,38,15.80
2022,10,16,04,39,15.80
2022,10,16,04,40,15.80
2022,10,16,04,41,15.80
2022,10,16,04,42,15.80
2022,10,16,04,43,15.80
2022,10,16,04,44,15.80
2022,10,16,04,45,15.80
2022,10,16,04,46,15.80
2022,10,16,04,47,15.80
2022,10,16,04,48,15.80
2022,10,16,04,49,15.80
2022,10,16,04,50,15.80
2022,10,16,04,51,15.80
2022,10,16,04,52,15.80
2022,10,16,04,53,15.80
2022,10,16,04,54,15.80
2022,10,16,04,55,15.80
2022,10,16,04,56,15.80
2022,10,16,04,57,15.80
2022,10,16,04,58,15.80
2022,10,16,04,59,15.80
2022,10,16,05,00,15.80
2022,10,16,05,01,15.80
2022,10,16,05,02,15.80
2022,10,16,05,03,15.80
2022,10,16,05,04,15.90
2022,10,16,05,05,15.90
2022,10,16,05,06,15.80
2022,10,16,05,07,15.80
2022,10,16,05,08,15.90
2022,10,16,05,09,15.90
2022,10,16,05,10,15.90
2022,10,16,05,11,15.90
2022,10,16,05,12,15.90
2022,10,16,05,13,16.00
2022,10,16,05,14,16.10
2022,10,16,05,15,16.10
2022,10,16,05,16,16.10
2022,10,16,05,17,16.10
2022,10,16,05,18,16.10
2022,10,16,05,19,16.10
2022,10,16,05,20,16.10
2022,10,16,05,21,16.10
2022,10,16,05,22,16.10
2022,10,16,05,23,16.20
2022,10,16,05,24,16.20
2022,10,16,05,25,16.20
2022,10,16,05,26,16.20
2022,10,16,05,27,16.20
2022,10,16,05,28,16.30
2022,10,16,05,29,16.30
2022,10,16,05,30,16.30
2022,10,16,05,31,16.30
2022,10,16,05,32,16.30
2022,10,16,05,33,16.40
2022,10,16,05,34,16.40
2022,10,16,05,35,16.40
2022,10,16,05,36,16.40
2022,10,16,05,37,16.40
2022,10,16,05,38,16.40
2022,10,16,05,39,16.40
2022,10,16,05,40,16.40
2022,10,16,05,41,16.40
2022,10,16,05,42,16.40
2022,10,16,05,43,16.40
2022,10,16,05,44,16.40
2022,10,16,05,45,16.40
2022,10,16,05,46,16.40
2022,10,16,05,47,16.40
2022,10,16,05,48,16.40
2022,10,16,05,49,16.40
2022,10,16,05,50,16.40
2022,10,16,05,51,16.40
2022,10,16,05,52,16.40
2022,10,16,05,53,16.40
2022,10,16,05,54,16.40
2022,10,16,05,55,16.40
2022,10,16,05,56,16.40
2022,10,16,05,57,16.40
2022,10,16,05,58,16.40
2022,10,16,05,59,16.40
2022,10,16,06,00,16.40
2022,10,16,06,01,16.40
2022,10,16,06,02,16.40
2022,10,16,06,03,16.40
2022,10,16,06,04,16.40
2022,10,16,06,05,16.40
2022,10,16,06,06,16.40
2022,10,16,06,07,16.40
2022,10,16,06,08,16.40
2022,10,16,06,09,16.40
2022,10,16,06,10,16.40
2022,10,16,06,11,16.40
2022,10,16,06,12,16.40
2022,10,16,06,13,16.40
2022,10,16,06,14,16.40
2022,10,16,06,15,16.40
2022,10,16,06,16,16.40
2022,10,16,06,17,16.40
2022,10,16,06,18,16.40
2022,10,16,06,19,16.40
2022,10,16,06,20,16.40
2022,10,16,06,21,16.40
2022,10,16,06,22,16.40
2022,10,16,06,23,16.30
2022,10,16,06,24,16.30
2022,10,16,06,25,16.30
2022,10,16,06,26,16.30
2022,10,16,06,27,16.30
2022,10,16,06,28,16.30
2022,10,16,06,29,16.30
2022,10,16,06,30,16.20
2022,10,16,06,31,16.20
2022,10,16,06,32,16.20
2022,10,16,06,33,16.20
2022,10,16,06,34,16.20
2022,10,16,06,35,16.20
2022,10,16,06,36,16.20
2022,10,16,06,37,16.30
2022,10,16,06,38,16.30
2022,10,16,06,39,16.30
2022,10,16,06,40,16.30
2022,10,16,06,41,16.30
2022,10,16,06,42,16.30
2022,10,16,06,43,16.30
2022,10,16,06,44,16.30
2022,10,16,06,45,16.40
2022,10,16,06,46,16.40
2022,10,16,06,47,16.40
2022,10,16,06,48,16.40
2022,10,16,06,49,16.40
2022,10,16,06,50,16.40
2022,10,16,06,51,16.40
2022,10,16,06,52,16.40
2022,10,16,06,53,16.40
2022,10,16,06,54,16.50
2022,10,16,06,55,16.60
2022,10,16,06,56,16.60
2022,10,16,06,57,16.60
2022,10,16,06,58,16.60
2022,10,16,06,59,16.60
2022,10,16,07,00,16.60
2022,10,16,07,01,16.60
2022,10,16,07,02,16.60
2022,10,16,07,03,16.50
2022,10,16,07,04,16.40
2022,10,16,07,05,16.40
2022,10,16,07,06,16.40
2022,10,16,07,07,16.50
2022,10,16,07,08,16.60
2022,10,16,07,09,16.60
2022,10,16,07,10,16.60
2022,10,16,07,11,16.60
2022,10,16,07,12,16.60
2022,10,16,07,13,16.60
2022,10,16,07,14,16.60
2022,10,16,07,15,16.60
2022,10,16,07,16,16.60
2022,10,16,07,17,16.60
2022,10,16,07,18,16.60
2022,10,16,07,19,16.60
2022,10,16,07,20,16.60
2022,10,16,07,21,16.60
2022,10,16,07,22,16.60
2022,10,16,07,23,16.40
2022,10,16,07,24,16.40
2022,10,16,07,25,16.40
2022,10,16,07,26,16.40
2022,10,16,07,27,16.40
2022,10,16,07,28,16.40
2022,10,16,07,29,16.40
2022,10,16,07,30,16.40
2022,10,16,07,31,16.40
2022,10,16,07,32,16.40
2022,10,16,07,33,16.40
2022,10,16,07,34,16.40
2022,10,16,07,35,16.40
2022,10,16,07,36,16.40
2022,10,16,07,37,16.40
2022,10,16,07,38,16.40
2022,10,16,07,39,16.40
2022,10,16,07,40,16.40
2022,10,16,07,41,16.30
2022,10,16,07,42,16.30
2022,10,16,07,43,16.30
2022,10,16,07,44,16.30
2022,10,16,07,45,16.30
2022,10,16,07,46,16.30
2022,10,16,07,47,16.30
2022,10,16,07,48,16.30
2022,10,16,07,49,16.20
2022,10,16,07,50,16.20
2022,10,16,07,51,16.20
2022,10,16,07,52,16.20
2022,10,16,07,53,16.20
2022,10,16,07,54,16.20
2022,10,16,07,55,16.20
2022,10,16,07,56,16.20
2022,10,16,07,57,16.20
2022,10,16,07,58,16.20
2022,10,16,07,59,16.20
2022,10,16,08,00,16.20
2022,10,16,08,01,16.20
2022,10,16,08,02,16.20
2022,10,16,08,03,16.20
2022,10,16,08,04,16.30
2022,10,16,08,05,16.30
2022,10,16,08,06,16.30
2022,10,16,08,07,16.40
2022,10,16,08,08,16.40
2022,10,16,08,09,16.50
2022,10,16,08,10,16.60
2022,10,16,08,11,16.60
2022,10,16,08,12,16.70
2022,10,16,08,13,16.70
2022,10,16,08,14,16.70
2022,10,16,08,15,16.70
2022,10,16,08,16,16.70
2022,10,16,08,17,16.80
2022,10,16,08,18,16.80
2022,10,16,08,19,16.90
2022,10,16,08,20,16.90
2022,10,16,08,21,16.90
2022,10,16,08,22,17.00
2022,10,16,08,23,17.00
2022,10,16,08,24,17.00
2022,10,16,08,25,17.10
2022,10,16,08,26,17.10
2022,10,16,08,27,17.20
2022,10,16,08,28,17.30
2022,10,16,08,29,17.30
2022,10,16,08,30,17.30
2022,10,16,08,31,17.30
2022,10,16,08,32,17.40
2022,10,16,08,33,17.40
2022,10,16,08,34,17.40
2022,10,16,08,35,17.40
2022,10,16,08,36,17.50
2022,10,16,08,37,17.50
2022,10,16,08,38,17.50
2022,10,16,08,39,17.60
2022,10,16,08,40,17.60
2022,10,16,08,41,17.60
2022,10,16,08,42,17.60
2022,10,16,08,43,17.70
2022,10,16,08,44,17.70
2022,10,16,08,45,17.70
2022,10,16,08,46,17.80
2022,10,16,08,47,17.80
2022,10,16,08,48,17.90
2022,10,16,08,49,17.90
2022,10,16,08,50,17.90
2022,10,16,08,51,17.90
2022,10,16,08,52,17.90
2022,10,16,08,53,18.00
2022,10,16,08,54,18.10
2022,10,16,08,55,18.10
2022,10,16,08,56,18.20
2022,10,16,08,57,18.20
2022,10,16,08,58,18.20
2022,10,16,08,59,18.30
2022,10,16,09,00,18.40
2022,10,16,09,01,18.40
2022,10,16,09,02,18.40
2022,10,16,09,03,18.50
2022,10,16,09,04,18.60
2022,10,16,09,05,18.60
2022,10,16,09,06,18.70
2022,10,16,09,07,18.70
2022,10,16,09,08,18.70
2022,10,16,09,09,18.80
2022,10,16,09,10,18.80
2022,10,16,09,11,18.90
2022,10,16,09,12,18.90
2022,10,16,09,13,18.90
2022,10,16,09,14,18.90
2022,10,16,09,15,19.00
2022,10,16,09,16,19.10
2022,10,16,09,17,19.10
2022,10,16,09,18,19.10
2022,10,16,09,19,19.10
2022,10,16,09,20,19.10
2022,10,16,09,21,19.10
2022,10,16,09,22,19.10
2022,10,16,09,23,19.10
2022,10,16,09,24,19.10
2022,10,16,09,25,19.10
2022,10,16,09,26,19.20
2022,10,16,09,27,19.20
2022,10,16,09,28,19.30
2022,10,16,09,29,19.30
2022,10,16,09,30,19.30
2022,10,16,09,31,19.40
2022,10,16,09,32,19.40
2022,10,16,09,33,19.50
2022,10,16,09,34,19.50
2022,10,16,09,35,19.50
2022,10,16,09,36,19.60
2022,10,16,09,37,19.60
2022,10,16,09,38,19.60
2022,10,16,09,39,19.60
2022,10,16,09,40,19.70
2022,10,16,09,41,19.70
2022,10,16,09,42,19.80
2022,10,16,09,43,19.80
2022,10,16,09,44,19.90
2022,10,16,09,45,19.90
2022,10,16,09,46,19.90
2022,10,16,09,47,19.90
2022,10,16,09,48,19.90
2022,10,16,09,49,20.10
2022,10,16,09,50,20.10
2022,10,16,09,51,20.10
2022,10,16,09,52,20.10
2022,10,16,09,53,20.20
2022,10,16,09,54,20.20
2022,10,16,09,55,20.20
2022,10,16,09,56,20.20
2022,10,16,09,57,20.20
2022,10,16,09,58,20.20
2022,10,16,09,59,20.30
2022,10,16,10,00,20.30
2022,10,16,10,01,20.30
2022,10,16,10,02,20.30
2022,10,16,10,03,20.40
2022,10,16,10,04,20.40
2022,10,16,10,05,20.40
2022,10,16,10,06,20.50
2022,10,16,10,07,20.50
2022,10,16,10,08,20.50
2022,10,16,10,09,20.60
2022,10,16,10,10,20.60
2022,10,16,10,11,20.60
2022,10,16,10,12,20.70
2022,10,16,10,13,20.70
2022,10,16,10,14,20.70
2022,10,16,10,15,20.80
2022,10,16,10,16,20.80
2022,10,16,10,17,20.80
2022,10,16,10,18,20.90
2022,10,16,10,19,20.90
2022,10,16,10,20,20.90
2022,10,16,10,21,20.90
2022,10,16,10,22,20.90
2022,10,16,10,23,20.90
2022,10,16,10,24,20.90
2022,10,16,10,25,20.90
2022,10,16,10,26,21.00
2022,10,16,10,27,21.00
2022,10,16,10,28,21.00
2022,10,16,10,29,21.10
2022,10,16,10,30,21.10
2022,10,16,10,31,21.20
2022,10,16,10,32,21.20
2022,10,16,10,33,21.30
2022,10,16,10,34,21.30
2022,10,16,10,35,21.30
2022,10,16,10,36,21.30
2022,10,16,10,37,21.40
2022,10,16,10,38,21.40
2022,10,16,10,39,21.40
2022,10,16,10,40,21.50
2022,10,16,10,41,21.60
2022,10,16,10,42,21.60
2022,10,16,10,43,21.60
2022,10,16,10,44,21.60
2022,10,16,10,45,21.60
2022,10,16,10,46,21.60
2022,10,16,10,47,21.70
2022,10,16,10,48,21.70
2022,10,16,10,49,21.80
2022,10,16,10,50,21.80
2022,10,16,10,51,21.80
2022,10,16,10,52,21.90
2022,10,16,10,53,21.90
2022,10,16,10,54,21.90
2022,10,16,10,55,21.90
2022,10,16,10,56,21.90
2022,10,16,10,57,21.90
2022,10,16,10,58,21.90
2022,10,16,10,59,21.90
2022,10,16,11,00,21.90
2022,10,16,11,01,22.00
2022,10,16,11,02,22.00
2022,10,16,11,03,22.00
2022,10,16,11,04,22.10
2022,10,16,11,05,22.10
2022,10,16,11,06,22.10
2022,10,16,11,07,22.20
2022,10,16,11,08,22.20
2022,10,16,11,09,22.20
2022,10,16,11,10,22.30
2022,10,16,11,11,22.30
2022,10,16,11,12,22.30
2022,10,16,11,13,22.30
2022,10,16,11,14,22.40
2022,10,16,11,15,22.40
2022,10,16,11,16,22.50
2022,10,16,11,17,22.50
2022,10,16,11,18,22.60
2022,10,16,11,19,22.60
2022,10,16,11,20,22.70
2022,10,16,11,21,22.70
2022,10,16,11,22,22.80
2022,10,16,11,23,22.80
2022,10,16,11,24,22.80
2022,10,16,11,25,22.90
2022,10,16,11,26,22.90
2022,10,16,11,27,22.90
2022,10,16,11,28,22.90
2022,10,16,11,29,23.00
2022,10,16,11,30,23.10
2022,10,16,11,31,23.10
2022,10,16,11,32,23.10
2022,10,16,11,33,23.20
2022,10,16,11,34,23.20
2022,10,16,11,35,23.30
2022,10,16,11,36,23.30
2022,10,16,11,37,23.30
2022,10,16,11,38,23.30
2022,10,16,11,39,23.30
2022,10,16,11,40,23.30
2022,10,16,11,41,23.30
2022,10,16,11,42,23.30
2022,10,16,11,43,23.30
2022,10,16,11,44,23.30
2022,10,16,11,45,23.30
2022,10,16,11,46,23.30
2022,10,16,11,47,23.30
2022,10,16,11,48,23.30
2022,10,16,11,49,23.30
2022,10,16,11,50,23.30
2022,10,16,11,51,23.30
2022,10,16,11,52,23.30
2022,10,16,11,53,23.30
2022,10,16,11,54,23.30
2022,10,16,11,55,23.30
2022,10,16,11,56,23.30
2022,10,16,11,57,23.30
2022,10,16,11,58,23.40
2022,10,16,11,59,23.40
2022,10,16,12,00,23.40
2022,10,16,12,01,23.40
2022,10,16,12,02,23.40
2022,10,16,12,03,23.50
2022,10,16,12,04,23.60
2022,10,16,12,05,23.60
2022,10,16,12,06,23.60
2022,10,16,12,07,23.70
2022,10,16,12,08,23.70
2022,10,16,12,09,23.70
2022,10,16,12,10,23.70
2022,10,16,12,11,23.70
2022,10,16,12,12,23.70
2022,10,16,12,13,23.70
2022,10,16,12,14,23.70
2022,10,16,12,15,23.80
2022,10,16,12,16,23.80
2022,10,16,12,17,23.90
2022,10,16,12,18,23.90
2022,10,16,12,19,23.90
2022,10,16,12,20,23.90
2022,10,16,12,21,24.00
2022,10,16,12,22,24.10
2022,10,16,12,23,24.10
2022,10,16,12,24,24.10
2022,10,16,12,25,24.10
2022,10,16,12,26,24.20
2022,10,16,12,27,24.20
2022,10,16,12,28,24.30
2022,10,16,12,29,24.40
2022,10,16,12,30,24.40
2022,10,16,12,31,24.50
2022,10,16,12,32,24.50
2022,10,16,12,33,24.60
2022,10,16,12,34,24.60
2022,10,16,12,35,24.60
2022,10,16,12,36,24.70
2022,10,16,12,37,24.70
2022,10,16,12,38,24.80
2022,10,16,12,39,24.80
2022,10,16,12,40,24.80
2022,10,16,12,41,24.80
2022,10,16,12,42,24.80
2022,10,16,12,43,24.80
2022,10,16,12,44,24.90
2022,10,16,12,45,24.80
2022,10,16,12,46,24.80
2022,10,16,12,47,24.90
2022,10,16,12,48,24.90
2022,10,16,12,49,24.90
2022,10,16,12,50,24.90
2022,10,16,12,51,24.90
2022,10,16,12,52,25.00
2022,10,16,12,53,25.00
2022,10,16,12,54,25.00
2022,10,16,12,55,25.00
2022,10,16,12,56,25.10
2022,10,16,12,57,25.10
2022,10,16,12,58,25.10
2022,10,16,12,59,25.10
2022,10,16,13,00,25.10
2022,10,16,13,01,25.10
2022,10,16,13,02,25.10
2022,10,16,13,03,25.20
2022,10,16,13,04,25.20
2022,10,16,13,05,25.30
2022,10,16,13,06,25.30
2022,10,16,13,07,25.30
2022,10,16,13,08,25.30
2022,10,16,13,09,25.30
2022,10,16,13,10,25.20
2022,10,16,13,11,25.20
2022,10,16,13,12,25.20
2022,10,16,13,13,25.20
2022,10,16,13,14,25.20
2022,10,16,13,15,25.20
2022,10,16,13,16,25.30
2022,10,16,13,17,25.30
2022,10,16,13,18,25.40
2022,10,16,13,19,25.40
2022,10,16,13,20,25.50
2022,10,16,13,21,25.50
2022,10,16,13,22,25.50
2022,10,16,13,23,25.50
2022,10,16,13,24,25.40
2022,10,16,13,25,25.40
2022,10,16,13,26,25.40
2022,10,16,13,27,25.40
2022,10,16,13,28,25.40
2022,10,16,13,29,25.40
2022,10,16,13,30,25.40
2022,10,16,13,31,25.50
2022,10,16,13,32,25.50
2022,10,16,13,33,25.50
2022,10,16,13,34,25.50
2022,10,16,13,35,25.50
2022,10,16,13,36,25.50
2022,10,16,13,37,25.50
2022,10,16,13,38,25.50
2022,10,16,13,39,25.50
2022,10,16,13,40,25.50
2022,10,16,13,41,25.50
2022,10,16,13,42,25.50
2022,10,16,13,43,25.50
2022,10,16,13,44,25.50
2022,10,16,13,45,25.60
2022,10,16,13,46,25.60
2022,10,16,13,47,25.60
2022,10,16,13,48,25.70
2022,10,16,13,49,25.70
2022,10,16,13,50,25.70
2022,10,16,13,51,25.70
2022,10,16,13,52,25.70
2022,10,16,13,53,25.80
2022,10,16,13,54,25.80
2022,10,16,13,55,25.90
2022,10,16,13,56,25.90
2022,10,16,13,57,25.90
2022,10,16,13,58,25.90
2022,10,16,13,59,25.90
2022,10,16,14,00,25.80
2022,10,16,14,01,25.80
2022,10,16,14,02,25.80
2022,10,16,14,03,25.70
2022,10,16,14,04,25.70
2022,10,16,14,05,25.70
2022,10,16,14,06,25.70
2022,10,16,14,07,25.80
2022,10,16,14,08,25.80
2022,10,16,14,09,25.80
2022,10,16,14,10,25.80
2022,10,16,14,11,25.80
2022,10,16,14,12,25.90
2022,10,16,14,13,25.90
2022,10,16,14,14,25.90
2022,10,16,14,15,26.00
2022,10,16,14,16,26.00
2022,10,16,14,17,26.00
2022,10,16,14,18,26.00
2022,10,16,14,19,26.00
2022,10,16,14,20,26.00
2022,10,16,14,21,26.00
2022,10,16,14,22,26.00
2022,10,16,14,23,26.00
2022,10,16,14,24,26.00
2022,10,16,14,25,26.10
2022,10,16,14,26,26.10
2022,10,16,14,27,26.20
2022,10,16,14,28,26.20
2022,10,16,14,29,26.20
2022,10,16,14,30,26.20
2022,10,16,14,31,26.20
2022,10,16,14,32,26.20
2022,10,16,14,33,26.10
2022,10,16,14,34,26.10
2022,10,16,14,35,26.10
2022,10,16,14,36,26.10
2022,10,16,14,37,26.10
2022,10,16,14,38,26.10
2022,10,16,14,39,26.10
2022,10,16,14,40,26.10
2022,10,16,14,41,26.10
2022,10,16,14,42,26.10
2022,10,16,14,43,26.10
2022,10,16,14,44,26.10
2022,10,16,14,45,26.20
2022,10,16,14,46,26.20
2022,10,16,14,47,26.10
2022,10,16,14,48,26.10
2022,10,16,14,49,26.10
2022,10,16,14,50,26.10
2022,10,16,14,51,26.10
2022,10,16,14,52,26.20
2022,10,16,14,53,26.20
2022,10,16,14,54,26.20
2022,10,16,14,55,26.20
2022,10,16,14,56,26.10
2022,10,16,14,57,26.10
2022,10,16,14,58,26.20
2022,10,16,14,59,26.20
2022,10,16,15,00,26.10
2022,10,16,15,01,26.10
2022,10,16,15,02,26.10
2022,10,16,15,03,26.10
2022,10,16,15,04,26.10
2022,10,16,15,05,26.20
2022,10,16,15,06,26.20
2022,10,16,15,07,26.20
2022,10,16,15,08,26.20
2022,10,16,15,09,26.20
2022,10,16,15,10,26.20
2022,10,16,15,11,26.20
2022,10,16,15,12,26.20
2022,10,16,15,13,26.20
2022,10,16,15,14,26.30
2022,10,16,15,15,26.30
2022,10,16,15,16,25.90
2022,10,16,15,17,25.30
2022,10,16,15,18,24.60
2022,10,16,15,19,24.00
2022,10,16,15,20,23.50
2022,10,16,15,21,23.20
2022,10,16,15,22,22.80
2022,10,16,15,23,22.60
2022,10,16,15,24,22.30
2022,10,16,15,25,22.20
2022,10,16,15,26,22.20
2022,10,16,15,27,22.20
2022,10,16,15,28,22.20
2022,10,16,15,29,22.00
2022,10,16,15,30,21.80
2022,10,16,15,31,21.50
2022,10,16,15,32,21.20
2022,10,16,15,33,20.90
2022,10,16,15,34,20.70
2022,10,16,15,35,20.50
2022,10,16,15,36,20.40
2022,10,16,15,37,20.30
2022,10,16,15,38,20.20
2022,10,16,15,39,20.20
2022,10,16,15,40,20.10
2022,10,16,15,41,20.00
2022,10,16,15,42,19.90
2022,10,16,15,43,19.90
2022,10,16,15,44,19.90
2022,10,16,15,45,19.90
2022,10,16,15,46,19.90
2022,10,16,15,47,20.00
2022,10,16,15,48,20.10
2022,10,16,15,49,20.20
2022,10,16,15,50,20.20
2022,10,16,15,51,20.20
2022,10,16,15,52,20.30
2022,10,16,15,53,20.30
2022,10,16,15,54,20.40
2022,10,16,15,55,20.40
2022,10,16,15,56,20.40
2022,10,16,15,57,20.50
2022,10,16,15,58,20.50
2022,10,16,15,59,20.50
2022,10,16,16,00,20.50
2022,10,16,16,01,20.50
2022,10,16,16,02,20.50
2022,10,16,16,03,20.50
2022,10,16,16,04,20.50
2022,10,16,16,05,20.50
2022,10,16,16,06,20.50
2022,10,16,16,07,20.50
2022,10,16,16,08,20.50
2022,10,16,16,09,20.50
2022,10,16,16,10,20.40
2022,10,16,16,11,20.30
2022,10,16,16,12,20.30
2022,10,16,16,13,20.30
2022,10,16,16,14,20.30
2022,10,16,16,15,20.20
2022,10,16,16,16,20.20
2022,10,16,16,17,20.20
2022,10,16,16,18,20.10
2022,10,16,16,19,20.10
2022,10,16,16,20,20.10
2022,10,16,16,21,19.90
2022,10,16,16,22,19.90
2022,10,16,16,23,19.90
2022,10,16,16,24,19.90
2022,10,16,16,25,20.00
2022,10,16,16,26,20.10
2022,10,16,16,27,20.10
2022,10,16,16,28,20.10
2022,10,16,16,29,20.00
2022,10,16,16,30,19.90
2022,10,16,16,31,19.90
2022,10,16,16,32,19.80
2022,10,16,16,33,19.80
2022,10,16,16,34,19.80
2022,10,16,16,35,19.80
2022,10,16,16,36,19.80
2022,10,16,16,37,19.80
2022,10,16,16,38,19.70
2022,10,16,16,39,19.60
2022,10,16,16,40,19.60
2022,10,16,16,41,19.60
2022,10,16,16,42,19.60
2022,10,16,16,43,19.60
2022,10,16,16,44,19.60
2022,10,16,16,45,19.50
2022,10,16,16,46,19.40
2022,10,16,16,47,19.40
2022,10,16,16,48,19.30
2022,10,16,16,49,19.30
2022,10,16,16,50,19.30
2022,10,16,16,51,19.30
2022,10,16,16,52,19.30
2022,10,16,16,53,19.30
2022,10,16,16,54,19.30
2022,10,16,16,55,19.30
2022,10,16,16,56,19.30
2022,10,16,16,57,19.30
2022,10,16,16,58,19.30
2022,10,16,16,59,19.40
2022,10,16,17,00,19.40
2022,10,16,17,01,19.50
2022,10,16,17,02,19.50
2022,10,16,17,03,19.50
2022,10,16,17,04,19.50
2022,10,16,17,05,19.50
2022,10,16,17,06,19.50
2022,10,16,17,07,19.50
2022,10,16,17,08,19.50
2022,10,16,17,09,19.50
2022,10,16,17,10,19.50
2022,10,16,17,11,19.60
2022,10,16,17,12,19.60
2022,10,16,17,13,19.70
2022,10,16,17,14,19.70
2022,10,16,17,15,19.70
2022,10,16,17,16,19.70
2022,10,16,17,17,19.70
2022,10,16,17,18,19.70
2022,10,16,17,19,19.60